AEE930 LGAV-HECA

Flight info

Callsign AEE930
Flight time 1h 31m
Altitude 37000
Route KEA UN132 KUPIS DCT LAPSO UN132 KUMBI L612 BLT
Aircraft A320/M-SDE3FGHIRWY/LB1

Departure

Time 2026-05-05 23:33
Airport Athens Eleftherios Venizelos International Airport (LGAV)

Arrival

Time 2026-05-06 01:04
Airport Cairo International Airport (HECA)
Time Latitude Longitude Altitude Speed Heading
2026-05-05 23:15 37.94111 23.95373 302 ft 0 kts 218°
2026-05-05 23:26 37.94122 23.95383 303 ft 4 kts 217°
2026-05-05 23:26 37.94144 23.95403 301 ft 4 kts 213°
2026-05-05 23:26 37.94167 23.95421 302 ft 4 kts 206°
2026-05-05 23:26 37.94191 23.95432 300 ft 4 kts 181°
2026-05-05 23:27 37.94209 23.95427 302 ft 1 kts 127°
2026-05-05 23:29 37.94190 23.95458 302 ft 10 kts 127°
2026-05-05 23:29 37.94126 23.95565 299 ft 18 kts 127°
2026-05-05 23:29 37.94107 23.95715 297 ft 20 kts 50°
2026-05-05 23:29 37.94223 23.95827 300 ft 22 kts 37°
2026-05-05 23:30 37.94355 23.95954 299 ft 25 kts 35°
2026-05-05 23:30 37.94501 23.96090 299 ft 27 kts 37°
2026-05-05 23:30 37.94659 23.96240 300 ft 29 kts 37°
2026-05-05 23:30 37.94828 23.96399 300 ft 31 kts 36°
2026-05-05 23:31 37.95005 23.96568 302 ft 33 kts 37°
2026-05-05 23:31 37.95184 23.96738 303 ft 28 kts 37°
2026-05-05 23:31 37.95327 23.96873 305 ft 24 kts 36°
2026-05-05 23:31 37.95345 23.97012 305 ft 19 kts 164°
2026-05-05 23:32 37.95217 23.97033 310 ft 18 kts 192°
2026-05-05 23:32 37.95106 23.96941 308 ft 21 kts 217°
2026-05-05 23:32 37.94916 23.96762 306 ft 61 kts 217°
2026-05-05 23:32 37.94399 23.96268 288 ft 123 kts 217°
2026-05-05 23:33 37.93591 23.95492 392 ft 157 kts 218°
2026-05-05 23:33 37.92697 23.94721 1032 ft 156 kts 212°
2026-05-05 23:33 37.91731 23.94055 1666 ft 159 kts 210°
2026-05-05 23:33 37.90735 23.93399 2220 ft 166 kts 210°
2026-05-05 23:34 37.89641 23.92685 2565 ft 186 kts 210°
2026-05-05 23:34 37.88436 23.91888 2928 ft 206 kts 210°
2026-05-05 23:34 37.87095 23.90990 3265 ft 230 kts 210°
2026-05-05 23:34 37.85623 23.89987 3820 ft 247 kts 210°
2026-05-05 23:35 37.84090 23.88938 4716 ft 253 kts 209°
2026-05-05 23:35 37.82527 23.87868 5606 ft 258 kts 209°
2026-05-05 23:35 37.80931 23.86776 6523 ft 263 kts 209°
2026-05-05 23:35 37.79307 23.85664 7371 ft 268 kts 208°
2026-05-05 23:36 37.77536 23.84865 8194 ft 275 kts 186°
2026-05-05 23:36 37.75654 23.85106 9000 ft 279 kts 158°
2026-05-05 23:36 37.73992 23.86432 9546 ft 289 kts 129°
2026-05-05 23:36 37.72918 23.88578 10223 ft 295 kts 114°
2026-05-05 23:37 37.71940 23.90985 10510 ft 319 kts 114°
2026-05-05 23:37 37.70901 23.93531 11006 ft 332 kts 114°
2026-05-05 23:37 37.69823 23.96148 11675 ft 338 kts 115°
2026-05-05 23:37 37.68720 23.98805 12358 ft 345 kts 115°
2026-05-05 23:38 37.67588 24.01513 13031 ft 352 kts 115°
2026-05-05 23:38 37.66434 24.04271 13711 ft 358 kts 116°
2026-05-05 23:38 37.65257 24.07084 14340 ft 365 kts 115°
2026-05-05 23:38 37.64085 24.09898 14925 ft 370 kts 115°
2026-05-05 23:39 37.62879 24.12797 15534 ft 376 kts 115°
2026-05-05 23:39 37.61655 24.15733 16133 ft 381 kts 115°
2026-05-05 23:39 37.60411 24.18707 16749 ft 386 kts 115°
2026-05-05 23:39 37.59148 24.21712 17362 ft 390 kts 116°
2026-05-05 23:40 37.57866 24.24753 17977 ft 395 kts 116°
2026-05-05 23:40 37.56557 24.27824 18559 ft 401 kts 118°
2026-05-05 23:40 37.54941 24.30725 19105 ft 407 kts 129°
2026-05-05 23:40 37.52963 24.33306 19644 ft 413 kts 135°
2026-05-05 23:41 37.50901 24.35854 20199 ft 417 kts 135°
2026-05-05 23:41 37.48815 24.38436 20746 ft 422 kts 135°
2026-05-05 23:41 37.46711 24.41045 21283 ft 427 kts 135°
2026-05-05 23:41 37.44585 24.43685 21816 ft 431 kts 135°
2026-05-05 23:42 37.42438 24.46348 22332 ft 436 kts 135°
2026-05-05 23:42 37.40268 24.49039 22862 ft 440 kts 135°
2026-05-05 23:42 37.38076 24.51759 23368 ft 445 kts 135°
2026-05-05 23:42 37.35858 24.54504 23842 ft 450 kts 135°
2026-05-05 23:43 37.33637 24.57245 24284 ft 454 kts 135°
2026-05-05 23:43 37.31379 24.60028 24735 ft 457 kts 135°
2026-05-05 23:43 37.29097 24.62836 25168 ft 461 kts 135°
2026-05-05 23:43 37.26798 24.65663 25603 ft 464 kts 135°
2026-05-05 23:44 37.24481 24.68511 26031 ft 467 kts 135°
2026-05-05 23:44 37.22152 24.71375 26455 ft 471 kts 135°
2026-05-05 23:44 37.19806 24.74258 26869 ft 474 kts 135°
2026-05-05 23:44 37.17440 24.77161 27282 ft 477 kts 135°
2026-05-05 23:45 37.15059 24.80078 27673 ft 480 kts 135°
2026-05-05 23:45 37.12659 24.83016 28057 ft 483 kts 135°
2026-05-05 23:45 37.10239 24.85976 28442 ft 486 kts 135°
2026-05-05 23:45 37.07812 24.88945 28832 ft 489 kts 135°
2026-05-05 23:46 37.05369 24.91930 29224 ft 492 kts 135°
2026-05-05 23:46 37.02911 24.94927 29609 ft 495 kts 135°
2026-05-05 23:46 37.00437 24.97941 29998 ft 498 kts 135°
2026-05-05 23:46 36.97943 25.00976 30352 ft 501 kts 135°
2026-05-05 23:47 36.95434 25.04020 30662 ft 504 kts 135°
2026-05-05 23:47 36.92941 25.07042 30985 ft 507 kts 135°
2026-05-05 23:47 36.90406 25.10113 31324 ft 509 kts 135°
2026-05-05 23:47 36.87849 25.13184 31669 ft 510 kts 135°
2026-05-05 23:48 36.85278 25.16241 32111 ft 509 kts 136°
2026-05-05 23:48 36.82709 25.19278 32612 ft 507 kts 136°
2026-05-05 23:48 36.80145 25.22303 33107 ft 506 kts 136°
2026-05-05 23:48 36.77594 25.25312 33596 ft 504 kts 136°
2026-05-05 23:49 36.75053 25.28308 34138 ft 501 kts 136°
2026-05-05 23:49 36.72531 25.31287 34587 ft 499 kts 136°
2026-05-05 23:49 36.70017 25.34259 35001 ft 498 kts 136°
2026-05-05 23:49 36.67502 25.37232 35327 ft 499 kts 136°
2026-05-05 23:50 36.64984 25.40207 35683 ft 498 kts 136°
2026-05-05 23:50 36.62481 25.43189 36023 ft 497 kts 135°
2026-05-05 23:50 36.60003 25.46186 36395 ft 497 kts 135°
2026-05-05 23:50 36.57571 25.49156 36731 ft 496 kts 135°
2026-05-05 23:51 36.55113 25.52166 37005 ft 496 kts 135°
2026-05-05 23:51 36.52656 25.55169 37076 ft 494 kts 135°
2026-05-05 23:51 36.47749 25.61133 37055 ft 493 kts 135°
2026-05-05 23:52 36.42834 25.67065 37069 ft 492 kts 135°
2026-05-05 23:52 36.37909 25.72986 37075 ft 493 kts 136°
2026-05-05 23:53 36.32975 25.78916 37078 ft 493 kts 135°
2026-05-05 23:53 36.28073 25.84809 37075 ft 493 kts 136°
2026-05-05 23:54 36.23134 25.90724 37084 ft 493 kts 136°
2026-05-05 23:54 36.18175 25.96602 37097 ft 494 kts 136°
2026-05-05 23:55 36.13190 26.02468 37084 ft 494 kts 136°
2026-05-05 23:55 36.08198 26.08321 37090 ft 494 kts 136°
2026-05-05 23:56 36.03247 26.14133 37088 ft 494 kts 136°
2026-05-05 23:56 35.98272 26.19982 37086 ft 494 kts 136°
2026-05-05 23:57 35.93287 26.25819 37096 ft 493 kts 136°
2026-05-05 23:57 35.88288 26.31636 37099 ft 494 kts 136°
2026-05-05 23:58 35.83298 26.37448 37081 ft 493 kts 136°
2026-05-05 23:58 35.78314 26.43268 37079 ft 493 kts 136°
2026-05-05 23:59 35.73331 26.49071 37082 ft 493 kts 137°
2026-05-05 23:59 35.68329 26.54866 37094 ft 493 kts 137°
2026-05-06 00:00 35.63359 26.60608 37101 ft 494 kts 137°
2026-05-06 00:00 35.58348 26.66394 37100 ft 494 kts 137°
2026-05-06 00:01 35.53341 26.72168 37076 ft 494 kts 137°
2026-05-06 00:01 35.49178 26.76967 37081 ft 493 kts 137°
2026-05-06 00:02 35.44168 26.82728 37082 ft 493 kts 137°
2026-05-06 00:02 35.39155 26.88475 37102 ft 493 kts 137°
2026-05-06 00:03 35.34139 26.94219 37082 ft 493 kts 137°
2026-05-06 00:03 35.29122 26.99964 37084 ft 493 kts 137°
2026-05-06 00:04 35.24107 27.05694 37079 ft 493 kts 137°
2026-05-06 00:04 35.19080 27.11419 37080 ft 493 kts 137°
2026-05-06 00:05 35.11575 27.19950 37090 ft 493 kts 137°
2026-05-06 00:06 35.06552 27.25650 37090 ft 492 kts 137°
2026-05-06 00:06 35.01529 27.31329 37090 ft 492 kts 137°
2026-05-06 00:07 34.96500 27.36996 37087 ft 492 kts 138°
2026-05-06 00:07 34.91471 27.42657 37055 ft 492 kts 138°
2026-05-06 00:08 34.86444 27.48304 37080 ft 491 kts 138°
2026-05-06 00:08 34.81427 27.53937 37088 ft 490 kts 138°
2026-05-06 00:09 34.76410 27.59564 37076 ft 490 kts 138°
2026-05-06 00:09 34.71427 27.65131 37090 ft 489 kts 139°
2026-05-06 00:10 34.66412 27.70722 37088 ft 489 kts 139°
2026-05-06 00:10 34.61393 27.76308 37076 ft 489 kts 139°
2026-05-06 00:11 34.56379 27.81889 37071 ft 489 kts 139°
2026-05-06 00:11 34.51363 27.87461 37067 ft 488 kts 139°
2026-05-06 00:12 34.46337 27.93024 37083 ft 488 kts 139°
2026-05-06 00:12 34.41354 27.98549 37078 ft 488 kts 139°
2026-05-06 00:13 34.36329 28.04101 37083 ft 488 kts 139°
2026-05-06 00:13 34.31313 28.09633 37087 ft 488 kts 139°
2026-05-06 00:14 34.26307 28.15143 37072 ft 486 kts 139°
2026-05-06 00:14 34.21303 28.20647 37077 ft 486 kts 139°
2026-05-06 00:15 34.16301 28.26125 37081 ft 485 kts 139°
2026-05-06 00:15 34.11302 28.31596 37077 ft 485 kts 139°
2026-05-06 00:16 34.06298 28.37062 37083 ft 485 kts 140°
2026-05-06 00:16 34.01295 28.42528 37087 ft 484 kts 140°
2026-05-06 00:17 33.96339 28.47936 37063 ft 483 kts 140°
2026-05-06 00:17 33.91322 28.53390 37080 ft 482 kts 140°
2026-05-06 00:18 33.86378 28.58767 37079 ft 482 kts 140°
2026-05-06 00:18 33.81400 28.64166 37080 ft 481 kts 140°
2026-05-06 00:19 33.76425 28.69557 37089 ft 481 kts 140°
2026-05-06 00:19 33.71453 28.74937 37083 ft 480 kts 141°
2026-05-06 00:20 33.66521 28.80362 37075 ft 481 kts 139°
2026-05-06 00:20 33.61663 28.85869 37063 ft 480 kts 139°
2026-05-06 00:21 33.56837 28.91344 37066 ft 480 kts 139°
2026-05-06 00:21 33.51962 28.96803 37088 ft 480 kts 140°
2026-05-06 00:22 33.47081 29.02252 37079 ft 480 kts 140°
2026-05-06 00:22 33.42198 29.07704 37078 ft 480 kts 140°
2026-05-06 00:23 33.37311 29.13142 37075 ft 480 kts 140°
2026-05-06 00:23 33.32419 29.18571 37052 ft 480 kts 140°
2026-05-06 00:24 33.27531 29.24006 37074 ft 479 kts 140°
2026-05-06 00:24 33.22647 29.29423 37080 ft 479 kts 141°
2026-05-06 00:25 33.17784 29.34807 37082 ft 479 kts 141°
2026-05-06 00:25 33.12895 29.40212 37080 ft 479 kts 141°
2026-05-06 00:26 33.08000 29.45610 37080 ft 479 kts 141°
2026-05-06 00:26 33.03101 29.50996 37083 ft 479 kts 141°
2026-05-06 00:27 32.98203 29.56379 37066 ft 479 kts 141°
2026-05-06 00:27 32.93306 29.61755 37077 ft 479 kts 141°
2026-05-06 00:28 32.88434 29.67093 37084 ft 479 kts 141°
2026-05-06 00:28 32.83535 29.72466 37089 ft 479 kts 141°
2026-05-06 00:29 32.78631 29.77820 37089 ft 479 kts 141°
2026-05-06 00:29 32.73721 29.83162 37096 ft 479 kts 141°
2026-05-06 00:30 32.68809 29.88519 37091 ft 479 kts 141°
2026-05-06 00:30 32.63906 29.93879 37079 ft 478 kts 141°
2026-05-06 00:31 32.59028 29.99178 37093 ft 478 kts 142°
2026-05-06 00:31 32.54116 30.04487 37095 ft 478 kts 142°
2026-05-06 00:32 32.49206 30.09793 37095 ft 477 kts 142°
2026-05-06 00:32 32.44299 30.15086 37099 ft 477 kts 142°
2026-05-06 00:33 32.39387 30.20382 37102 ft 477 kts 142°
2026-05-06 00:33 32.34486 30.25658 37082 ft 476 kts 142°
2026-05-06 00:34 32.29581 30.30918 37084 ft 475 kts 142°
2026-05-06 00:34 32.24704 30.36145 37092 ft 475 kts 142°
2026-05-06 00:35 32.19808 30.41388 37094 ft 475 kts 142°
2026-05-06 00:35 32.14906 30.46623 36992 ft 478 kts 142°
2026-05-06 00:35 32.12442 30.49249 36730 ft 478 kts 142°
2026-05-06 00:36 32.09974 30.51885 36471 ft 477 kts 142°
2026-05-06 00:36 32.07520 30.54509 36224 ft 476 kts 142°
2026-05-06 00:36 32.05066 30.57131 35974 ft 475 kts 142°
2026-05-06 00:36 32.02619 30.59741 35728 ft 474 kts 142°
2026-05-06 00:37 32.00176 30.62341 35481 ft 473 kts 142°
2026-05-06 00:37 31.97735 30.64934 35234 ft 472 kts 141°
2026-05-06 00:37 31.95298 30.67519 34999 ft 471 kts 141°
2026-05-06 00:37 31.92861 30.70099 34760 ft 470 kts 141°
2026-05-06 00:38 31.90458 30.72642 34524 ft 469 kts 141°
2026-05-06 00:38 31.88032 30.75212 34290 ft 468 kts 141°
2026-05-06 00:38 31.85617 30.77770 34053 ft 468 kts 141°
2026-05-06 00:38 31.83202 30.80327 33782 ft 465 kts 141°
2026-05-06 00:39 31.80806 30.82862 33304 ft 463 kts 141°
2026-05-06 00:39 31.78416 30.85385 32785 ft 461 kts 141°
2026-05-06 00:39 31.76031 30.87900 32275 ft 459 kts 141°
2026-05-06 00:39 31.73660 30.90401 31772 ft 457 kts 141°
2026-05-06 00:40 31.71296 30.92896 31266 ft 456 kts 141°
2026-05-06 00:40 31.68943 30.95380 30757 ft 455 kts 141°
2026-05-06 00:40 31.66600 30.97855 30295 ft 447 kts 141°
2026-05-06 00:40 31.64326 31.00257 29799 ft 434 kts 142°
2026-05-06 00:41 31.62109 31.02593 29360 ft 422 kts 142°
2026-05-06 00:41 31.59950 31.04864 28947 ft 415 kts 142°
2026-05-06 00:41 31.57827 31.07087 28535 ft 414 kts 142°
2026-05-06 00:41 31.55635 31.09258 28110 ft 409 kts 149°
2026-05-06 00:42 31.53220 31.10964 27709 ft 401 kts 160°
2026-05-06 00:42 31.50646 31.12116 27328 ft 391 kts 171°
2026-05-06 00:42 31.48017 31.12830 26950 ft 389 kts 175°
2026-05-06 00:42 31.45327 31.13188 26581 ft 388 kts 186°
2026-05-06 00:43 31.42660 31.12999 26201 ft 384 kts 191°
2026-05-06 00:43 31.39992 31.12815 25824 ft 383 kts 191°
2026-05-06 00:43 31.37341 31.12604 25460 ft 380 kts 191°
2026-05-06 00:43 31.34705 31.12391 25094 ft 379 kts 191°
2026-05-06 00:44 31.32073 31.12176 24596 ft 380 kts 191°
2026-05-06 00:44 31.29421 31.12067 24108 ft 386 kts 183°
2026-05-06 00:44 31.26725 31.12292 23636 ft 388 kts 182°
2026-05-06 00:44 31.24089 31.12538 23324 ft 382 kts 182°
2026-05-06 00:45 31.21457 31.12800 23053 ft 377 kts 181°
2026-05-06 00:45 31.18813 31.13063 22775 ft 375 kts 181°
2026-05-06 00:45 31.16253 31.13313 22515 ft 373 kts 182°
2026-05-06 00:45 31.13686 31.13559 22248 ft 369 kts 182°
2026-05-06 00:46 31.11139 31.13798 21984 ft 367 kts 182°
2026-05-06 00:46 31.08596 31.14035 21729 ft 365 kts 182°
2026-05-06 00:46 31.06066 31.14272 21477 ft 364 kts 182°
2026-05-06 00:46 31.03550 31.14509 21196 ft 360 kts 182°
2026-05-06 00:47 31.01056 31.14743 20777 ft 359 kts 182°
2026-05-06 00:47 30.98570 31.14977 20334 ft 359 kts 182°
2026-05-06 00:47 30.96077 31.15212 19897 ft 359 kts 182°
2026-05-06 00:47 30.93582 31.15444 19452 ft 359 kts 182°
2026-05-06 00:48 30.91089 31.15674 18995 ft 359 kts 182°
2026-05-06 00:48 30.88599 31.15907 18563 ft 359 kts 182°
2026-05-06 00:48 30.86103 31.16141 18084 ft 360 kts 181°
2026-05-06 00:48 30.83610 31.16375 17632 ft 358 kts 181°
2026-05-06 00:49 30.81129 31.16611 17186 ft 356 kts 181°
2026-05-06 00:49 30.78662 31.16846 16746 ft 355 kts 181°
2026-05-06 00:49 30.76208 31.17076 16308 ft 353 kts 181°
2026-05-06 00:49 30.73758 31.17304 15873 ft 352 kts 180°
2026-05-06 00:50 30.71355 31.17527 15452 ft 350 kts 180°
2026-05-06 00:50 30.68930 31.17751 15026 ft 349 kts 180°
2026-05-06 00:50 30.66520 31.17975 14576 ft 344 kts 180°
2026-05-06 00:50 30.64931 31.18124 14307 ft 334 kts 180°
2026-05-06 00:51 30.61916 31.18407 13761 ft 326 kts 180°
2026-05-06 00:51 30.59653 31.18615 13331 ft 326 kts 180°
2026-05-06 00:51 30.57399 31.18822 12916 ft 325 kts 179°
2026-05-06 00:51 30.55874 31.18963 12639 ft 325 kts 179°
2026-05-06 00:52 30.53617 31.19172 12236 ft 324 kts 179°
2026-05-06 00:52 30.51402 31.19379 11836 ft 323 kts 179°
2026-05-06 00:52 30.49133 31.19590 11459 ft 321 kts 179°
2026-05-06 00:52 30.46953 31.19797 11092 ft 315 kts 178°
2026-05-06 00:53 30.44793 31.20002 10603 ft 308 kts 178°
2026-05-06 00:53 30.42651 31.20203 10147 ft 310 kts 178°
2026-05-06 00:53 30.40493 31.20403 9633 ft 313 kts 178°
2026-05-06 00:53 30.38316 31.20604 9117 ft 315 kts 178°
2026-05-06 00:54 30.36123 31.20806 8596 ft 317 kts 178°
2026-05-06 00:54 30.33927 31.21008 8085 ft 314 kts 178°
2026-05-06 00:54 30.31813 31.21208 7864 ft 295 kts 178°
2026-05-06 00:54 30.29775 31.21400 7749 ft 293 kts 178°
2026-05-06 00:55 30.27746 31.21586 7403 ft 292 kts 178°
2026-05-06 00:55 30.25714 31.21772 7022 ft 293 kts 178°
2026-05-06 00:55 30.23696 31.21958 6686 ft 288 kts 178°
2026-05-06 00:55 30.21730 31.22141 6264 ft 278 kts 177°
2026-05-06 00:56 30.19843 31.22317 5896 ft 267 kts 177°
2026-05-06 00:56 30.18029 31.22485 5557 ft 256 kts 177°
2026-05-06 00:56 30.16287 31.22646 5232 ft 246 kts 176°
2026-05-06 00:56 30.14640 31.22798 4923 ft 236 kts 176°
2026-05-06 00:57 30.13031 31.22947 4639 ft 226 kts 176°
2026-05-06 00:57 30.11556 31.23084 4610 ft 197 kts 176°
2026-05-06 00:57 30.10279 31.23203 4527 ft 170 kts 176°
2026-05-06 00:57 30.09160 31.23307 4227 ft 158 kts 176°
2026-05-06 00:58 30.08069 31.23412 3837 ft 155 kts 175°
2026-05-06 00:58 30.07021 31.23516 3526 ft 149 kts 175°
2026-05-06 00:58 30.05995 31.23641 3151 ft 148 kts 167°
2026-05-06 00:58 30.05055 31.24057 2955 ft 143 kts 147°
2026-05-06 00:59 30.04260 31.24745 2964 ft 143 kts 134°
2026-05-06 00:59 30.03604 31.25600 3019 ft 142 kts 122°
2026-05-06 00:59 30.03114 31.26588 3011 ft 141 kts 110°
2026-05-06 00:59 30.02814 31.27663 2876 ft 139 kts 97°
2026-05-06 01:00 30.02752 31.28764 2727 ft 136 kts 82°
2026-05-06 01:00 30.02913 31.29830 2539 ft 134 kts 70°
2026-05-06 01:00 30.03296 31.30786 2432 ft 131 kts 52°
2026-05-06 01:00 30.03849 31.31620 2273 ft 130 kts 49°
2026-05-06 01:01 30.04429 31.32421 2109 ft 130 kts 47°
2026-05-06 01:01 30.05015 31.33212 1929 ft 129 kts 47°
2026-05-06 01:01 30.05599 31.33997 1765 ft 129 kts 47°
2026-05-06 01:01 30.06189 31.34777 1573 ft 129 kts 47°
2026-05-06 01:02 30.06767 31.35551 1389 ft 129 kts 47°
2026-05-06 01:02 30.07360 31.36334 1224 ft 130 kts 47°
2026-05-06 01:02 30.07950 31.37125 1059 ft 130 kts 48°
2026-05-06 01:02 30.08546 31.37921 876 ft 131 kts 48°
2026-05-06 01:03 30.09150 31.38725 680 ft 130 kts 48°
2026-05-06 01:03 30.09741 31.39517 514 ft 130 kts 48°
2026-05-06 01:03 30.10326 31.40295 391 ft 120 kts 47°
2026-05-06 01:03 30.10774 31.40897 385 ft 75 kts 49°
2026-05-06 01:04 30.11035 31.41241 387 ft 52 kts 49°
2026-05-06 01:04 30.11284 31.41549 385 ft 35 kts 39°
2026-05-06 01:04 30.11495 31.41628 376 ft 34 kts 16°
2026-05-06 01:04 30.11684 31.41559 363 ft 22 kts 291°
2026-05-06 01:05 30.11651 31.41381 358 ft 25 kts 259°
2026-05-06 01:05 30.11584 31.41219 359 ft 13 kts 192°
2026-05-06 01:05 30.11502 31.41233 361 ft 11 kts 166°
2026-05-06 01:05 30.11425 31.41204 366 ft 16 kts 225°
2026-05-06 01:06 30.11324 31.41069 367 ft 28 kts 230°
2026-05-06 01:06 30.11175 31.40869 367 ft 37 kts 228°
2026-05-06 01:06 30.11056 31.40714 364 ft 22 kts 227°
2026-05-06 01:06 30.11053 31.40600 361 ft 10 kts 319°
2026-05-06 01:07 30.11086 31.40510 355 ft 16 kts 266°
2026-05-06 01:07 30.11085 31.40467 354 ft 3 kts 268°
2026-05-06 01:07 30.11085 31.40439 353 ft 0 kts 269°